Content
SEND FEEDBACK

Daily
Averages
Monthly
Summary
France

OISSEL, FRANCE


Home > Europe > France
Elevation: 515 feet     Latitude: 49 22N     Longitude: 001 10E

WEATHER
 
SELECT A DAY
Number of Records: 180,508;   Date Range: 7/1/96 - 10/23/14
 
SHARE

PRINT THIS DATA

[ ← Previous Day ]
WEATHER ALMANAC - JANUARY 24, 2013
[ Next Day → ]
[ °C ]   °F
Weather ElementAverageHighLow
Temperature31.4 °F33.8 °F (12:30 am)23 °F (10:00 pm)
Dewpoint27.9 °F33.8 °F (2:30 am)19.4 °F (10:30 pm)
Humidity87.1 %100 % (2:30 am)65 % (4:30 pm)
Barometer29.90 in30.09 in (7:00 pm)29.71 in (12:30 am)
Wind Speed7.6 mph12.7 mph (12:00 pm)
Weather ElementAverage
Visibility2.1 mi
Wind DirectionENE (57.1 °)

Weather ElementTotal
Precipitation---
Heating Degree Days36.6 (Base 65)
Averaged from 51 records on January 24, 2013
WEATHER CONDITIONS BREAKOUT
WIND DIRECTION BREAKOUT
WEATHER BY HOUR - JANUARY 24, 2013
[ °C ]   °F
Local TimeTemperatureDewpointHumidityBarometerVisibilityWind DirectionWind SpeedGust SpeedPrecipitationEventsConditions
12:30 AM33.8 °F32.0 °F93 %29.71 in1.7 miESE (120°)6.9 mphOvercast
1:00 AM33.0 °F33.0 °F97 %29.75 in2.0 miESE (120°)8.1 mphRainLight Drizzle
1:00 AM33.8 °F32.0 °F93 %29.71 in1.6 miESE (120°)8.1 mphLight Drizzle
1:30 AM33.8 °F32.0 °F93 %29.71 in1.4 miESE (110°)6.9 mphOvercast
2:00 AM33.8 °F32.0 °F93 %29.71 in1.4 miEast (100°)5.8 mphOvercast
2:30 AM33.8 °F33.8 °F100 %29.71 in1.3 miEast (100°)5.8 mphOvercast
3:00 AM33.8 °F32.0 °F93 %29.74 in1.1 miESE (120°)6.9 mphOvercast
3:30 AM33.8 °F33.8 °F100 %29.74 in3.1 miESE (110°)6.9 mphOvercast
4:00 AM33.8 °F32.0 °F93 %29.74 inVariable2.3 mphOvercast
4:30 AM33.8 °F32.0 °F93 %29.77 in0.8 miNE (50°)3.5 mphOvercast
5:00 AM33.8 °F32.0 °F93 %29.77 in1.1 miNE (40°)3.5 mphOvercast
5:30 AM33.8 °F32.0 °F93 %29.77 in1.1 miNE (50°)4.6 mphOvercast
6:00 AM33.8 °F32.0 °F93 %29.77 in1.1 miNE (50°)6.9 mphOvercast
6:30 AM33.8 °F32.0 °F93 %29.80 in1.1 miNE (50°)6.9 mphOvercast
7:00 AM33.0 °F32.0 °F96 %29.83 in1.0 miNE (50°)6.9 mphMist
7:00 AM33.8 °F32.0 °F93 %29.80 in1.1 miENE (60°)6.9 mphOvercast
7:30 AM33.8 °F32.0 °F93 %29.80 in1.1 miENE (60°)6.9 mphOvercast
8:00 AM32.0 °F32.0 °F100 %29.83 in1.5 miNE (50°)8.1 mphOvercast
8:30 AM33.8 °F32.0 °F93 %29.83 in1.2 miNE (40°)8.1 mphOvercast
9:00 AM32.0 °F32.0 °F100 %29.83 in1.4 miNE (40°)6.9 mphOvercast
9:30 AM32.0 °F32.0 °F100 %29.86 in1.2 miNNE (30°)6.9 mphOvercast
10:00 AM32.0 °F32.0 °F100 %29.86 in1.5 miNNE (30°)9.2 mphOvercast
10:30 AM33.8 °F32.0 °F93 %29.89 in1.6 miNE (40°)5.8 mphOvercast
11:00 AM33.8 °F32.0 °F93 %29.89 in1.4 miNNE (30°)10.4 mphOvercast
11:30 AM33.8 °F30.2 °F87 %29.92 in1.3 miNE (40°)9.2 mphOvercast
12:00 PM33.8 °F30.2 °F87 %29.92 in1.2 miNNE (30°)12.7 mphOvercast
12:30 PM32.0 °F28.4 °F87 %29.95 in1.9 miNE (50°)9.2 mphOvercast
1:00 PM33.0 °F28.0 °F74 %29.97 in2.0 miNE (50°)11.5 mphMist
1:00 PM32.0 °F28.4 °F87 %29.95 in2.8 miNE (50°)11.5 mphOvercast
1:30 PM33.8 °F28.4 °F81 %29.95 in3.1 miNNE (30°)9.2 mphOvercast
2:00 PM33.8 °F26.6 °F75 %29.95 in4.3 miNE (40°)9.2 mphOvercast
2:30 PM33.8 °F26.6 °F75 %29.95 in4.3 miNNE (30°)9.2 mphOvercast
3:00 PM33.8 °F24.8 °F70 %29.95 in5.0 miNE (50°)9.2 mphScattered Clouds
3:30 PM33.8 °F24.8 °F70 %29.95 in5.6 miNE (50°)9.2 mph
4:00 PM33.8 °F24.8 °F70 %29.98 in4.3 miNE (50°)9.2 mphPartly Cloudy
4:30 PM33.8 °F23.0 °F65 %29.98 in5.6 miNE (40°)8.1 mphPartly Cloudy
5:00 PM32.0 °F24.8 °F75 %30.01 in5.0 miNNE (30°)8.1 mph
5:30 PM30.2 °F23.0 °F75 %30.01 in3.1 miNNE (30°)8.1 mphMist
6:00 PM30.2 °F24.8 °F80 %30.01 inNE (40°)8.1 mphMist
6:30 PM28.4 °F23.0 °F80 %30.04 inENE (60°)6.9 mphMist
7:00 PM27.0 °F22.0 °F76 %30.09 in2.0 miENE (60°)8.1 mphMist
7:00 PM26.6 °F23.0 °F86 %30.04 inENE (60°)8.1 mphMist
7:30 PM26.6 °F21.2 °F80 %30.06 in2.2 miNE (50°)8.1 mphMist
8:00 PM26.6 °F21.2 °F80 %30.06 inNE (40°)8.1 mphMist
8:30 PM26.6 °F21.2 °F80 %30.06 inNE (50°)8.1 mphMist
9:00 PM24.8 °F21.2 °F86 %30.06 in1.8 miENE (60°)6.9 mphMist
9:30 PM24.8 °F21.2 °F86 %30.06 in1.9 miNE (50°)6.9 mphMist
10:00 PM23.0 °F21.2 °F93 %30.09 in1.7 miENE (60°)5.8 mphMist
10:30 PM23.0 °F19.4 °F86 %30.06 in1.6 miENE (60°)5.8 mphMist
11:00 PM23.0 °F19.4 °F86 %30.09 in1.7 miEast (90°)5.8 mphMist
11:30 PM23.0 °F19.4 °F86 %30.09 in1.7 miEast (90°)6.9 mphMist
Hourly data recorded from LFOP, located miles away from Oissel, France







STORIES FROM OUR PARTNERS